www.pogodaiklimat.ru

Погода и климат >> Архив погоды >> Россия >> Якутия >> Сангар


ПОГОДА в Сангаре

  • Прогноз погоды в Сангаре
  • Монитор погоды в Сангаре

АРХИВ ПОГОДЫ в Сангаре

Время (UTC), дата Ветер
(напр.,м/с)
 
Видим.   Явления Облачность Т
(С)
Тd
(С)
f
(%)
Тe
(С)
Тes
(С)
Комфортность P
(гПа)
Po
(гПа)
Тmin
(С)
Tmax
(С)
R
(мм)
R24
(мм)
S
(см)
12 13.05 В 4
{13}
50 км 1/0
[Ci fib]
+12.3 -7.0 25 +11 +11 1011.5 1000.0 +16.8
15 13.05 СВ 2 10 км 4/3 600 м
[Cb calv Ci fib]
+7.7 -7.2 34 +6 +6 1012.2 1000.5
18 13.05 В 1 50 км 10/0
[Ci fib]
+6.8 -5.2 42 +7 +7 1012.3 1000.6
21 13.05 В 4 50 км 3/0
[Ci fib]
+10.0 -5.1 34 +8 +9 1012.2 1000.6
00 14.05 В 4 50 км 10/0
[Ci fib]
+13.5 -3.2 31 +12 +16 1012.1 1000.7 +6.7
03 14.05 В 4 50 км 10/0
[Ci fib]
+17.2 -0.6 30 +17 +23 1010.9 999.6
06 14.05 ЮВ 5 50 км 8/1 600 м
[Cu hum Ci fib]
+16.8 -2.1 27 +16 +20 1009.8 998.5
09 14.05 ЮВ 4 50 км 10/0
[Ci fib]
+18.2 -1.3 27 +18 +20 1008.8 997.5
12 14.05 В 5 50 км 10/0
[Ac trans Ci sp]
+15.2 -3.7 27 +14 +14 1008.7 997.3 +18.6
15 14.05 В 5-10
{12}
10 км 10/0
[Ac trans Cs]
+11.6 -2.7 37 +10 +10 1009.4 997.9
18 14.05 В 4
{10}
50 км 10/0
[Cs]
+10.4 -3.6 37 +8 +8 1009.5 997.9
21 14.05 В 5 50 км 9/0
[Ac und]
+11.1 -7.1 27 +9 +9 1008.7 997.2
00 15.05 ЮВ 4 50 км 9/0
[Ac trans]
+13.6 -6.1 25 +13 +15 1008.0 996.6 +9.5
03 15.05 Ю 3 50 км 10/0
[Ac trans Cc]
+14.1 -1.0 35 +13 +19 1006.6 995.2
06 15.05 Ю 4 50 км 9/6 930 м
[Sc Ac und]
+12.7 +0.2 42 +11 +12 1005.9 994.5
09 15.05 ЮВ 2 50 км 8/3 1000 м
[Sc Ac trans Cc]
+15.6 +0.5 36 +16 +17 1005.8 994.5
12 15.05 В 3 50 км 5/3 600 м
[Sc Ci fib]
+14.0 +0.9 41 +13 +13 1005.9 994.5 +15.6
15 15.05 В 3 10 км 10/0
[Ac trans Ci fib]
+12.4 -0.3 42 +11 +11 1005.9 994.5
18 15.05 В 3 20 км 10/4 600 м
[Cb calv Ac und]
+11.8 +3.8 58 +10 +10 1005.9 994.5
21 15.05 В 3 10 км слаб. ливневой дождь 10/4 600 м
[Cb calv Ac und]
+9.2 +8.2 93 +7 +7 1007.3 995.8
00 16.05 В 3 50 км {ливн. осадки} 8/3 600 м
[Cb calv Ac trans]
+12.5 +6.7 68 +11 +13 1006.9 995.5 +9.2 2
03 16.05 В 5-10
{11}
50 км 3/3 600 м
[Cu hum]
+17.4 +5.2 45 +17 +21 1006.4 995.2
06 16.05 В 4
{11}
50 км 1/0
[Ci fib]
+19.1 +8.6 51 +20 +26 1005.4 994.2
09 16.05 В 3 50 км 3/0
[Ci fib]
+19.3 +6.3 43 +20 +22 1005.0 993.9
12 16.05 В 3 50 км 3/1 1000 м
[Sc diur, vesp Ac trans Ci fib]
+15.9 +6.5 54 +16 +16 1005.7 994.4 +20.5
15 16.05 СВ 2 10 км 8/8 900 м
[Sc]
+12.8 +6.3 65 +12 +12 1005.6 994.2
18 16.05 В 3 20 км 1/0
[Ac trans]
+13.6 +4.5 54 +13 +13 1005.5 994.1
21 16.05 В 5-10
{12}
50 км 3/0
[Ci fib]
+12.8 0.0 41 +11 +12 1006.6 995.2
00 17.05 В 6-11
{12}
50 км 10/0
[Ac trans Cs]
+13.1 -0.2 40 +11 +13 1007.3 995.9 +12.3
03 17.05 В 5
{12}
20 км слаб. ливневой дождь 10/8 840 м
[Cb calv Ac und]
+14.9 +2.9 44 +14 +14 1006.8 995.4
06 17.05 В 5 50 км {ливн. осадки} 9/0
[Ac und]
+15.5 +2.9 43 +14 +16 1005.7 994.4
09 17.05 СВ 3 50 км 9/0
[Ac und]
+14.6 +2.5 44 +14 +15 1006.0 994.6
12 17.05 СЗ 2 50 км 10/3 1000 м
[Cb calv Ac und]
+7.2 +1.0 65 +5 +5 1007.0 995.3 +15.9 0.0
15 17.05 СЗ 2 10 км 10/3 600 м
[Cb calv Ac und]
+4.2 +0.5 77 +2 +2 1007.1 995.3
18 17.05 СЗ 2 20 км 9/4 600 м
[Sc Ac und]
+1.5 -0.7 85 -2 -2 1006.9 995.0
21 17.05 СЗ 2 20 км {ливн. осадки} 10/4 600 м
[Cb calv Ac und]
+1.8 -0.4 85 -2 -1 1007.0 995.1
00 18.05 СЗ 2 50 км {ливн. осадки} 10/4 600 м
[Cb calv Ac und]
+3.2 +0.6 83 0 +2 1006.8 994.9 +1.4 0.0
03 18.05 СЗ 4 50 км 6/3 600 м
[Cu hum Ac trans]
+5.0 +1.7 79 +1 +5 1006.6 994.8
06 18.05 СЗ 5 50 км 4/1 600 м
[Cu hum Ac trans]
+6.8 +3.5 79 +3 +6 1015.0 993.3
09 18.05 СЗ 6-10
{11}
50 км 6/4 600 м
[Cu hum Ac trans]
+5.6 +3.5 86 +1 +1 1005.0 993.3
12 18.05 СЗ 5
{10}
50 км 9/0
[Ac cast]
+3.9 +0.5 78 -1 -1 1005.6 993.8 +8.4
15 18.05 СЗ 6
{10}
10 км 9/0
[Ac trans]
+2.3 -0.7 81 -4 -4 1006.0 994.1
18 18.05 З 3
{10}
50 км 1/0
[Ac trans]
-0.5 -2.3 88 -5 -5 1006.7 994.7
21 18.05 З 3 50 км 1/0
[Ac trans]
-1.2 -4.8 76 -6 -5 1007.4 995.4
00 19.05 З 5 50 км 9/3 600 м
[Sc Ac trans]
+0.2 -4.7 70 -6 -4 1008.7 996.8 -1.5
03 19.05 СЗ 7-10
{10}
50 км 9/9
[Cb calv]
+2.7 -5.8 53 -3 -3 1009.1 997.2
06 19.05 СЗ 8-12
{13}
50 км ясно +4.1 -5.7 49 -1 0 1009.2 997.1
09 19.05 СЗ 9-14
{14}
50 км ясно +3.8 -5.8 49 -2 -2 1010.3 998.5
12 19.05 З 5
{14}
50 км ясно +1.4 -5.6 60 -4 -4 1011.9 999.9
15 19.05 СЗ 4 10 км ясно -1.2 -5.2 74 -7 -7 1012.5 1000.4
18 19.05 З 4 50 км ясно -3.1 -5.8 82 -9 -9 1012.6 1000.4
21 19.05 СЗ 3 50 км 10/0
[Ci fib]
-2.4 -4.6 85 -8 -7 1013.0 1000.8
00 20.05 З 3 50 км 6/0
[Ac trans Ci fib]
-0.1 -1.8 88 -5 -1 1013.5 1001.5 -3.3
03 20.05 СЗ 5 50 км 3/0
[Ci fib]
+3.0 -5.7 53 -2 +4 1014.0 1002.1
06 20.05 СЗ 4 50 км 6/0
[Ac trans Ci fib]
+4.2 -4.4 54 0 +5 1013.7 1001.9
09 20.05 СЗ 3 50 км ясно +5.2 -4.5 50 +2 +5 1014.5 1002.6

 

Местоположение метеостанции Сангар (Якутия, Россия): широта 63.95 долгота 127.40 высота над уровнем моря 96 м.

В архиве по умолчанию представлена погода в Сангаре за последнюю неделю. Архивные данные за месяц целиком и за предыдущие месяцы, начиная с января 2011 года, Вы можете получить, выбрав интересующий диапазон дат из раскрывающегося списка и нажав кнопку "Ввод!".


*Определитесь, кто Вы:
робот инопланетянин человек

Внимание! Время в таблицах - всемирное. Для получения местного времени необходимо прибавить поправку, которая равна 9 ч.

Смотрите также архив погоды в соседних городах и на ближайших метеорологических станциях:

Погода в Сого-Хае (Якутия, Россия) (61 км)
Погода в Батамае (Якутия, Россия) (109 км)
Погода в Хатырык-Хомо (Якутия, Россия) (127 км)
Погода в Сеген-Кюеле (Якутия, Россия) (142 км)
Погода в Намцах (Якутия, Россия) (175 км)
Погода в Бердигестяхе (Якутия, Россия) (188 км)
Погода в Себян-Кюеле (Якутия, Россия) (195 км)
Погода в Бестяхской Звероферме (Якутия, Россия) (217 км)
Погода в Верхоянском Перевозе (Якутия, Россия) (238 км)
Погода в Якутске (Якутия, Россия) (244 км)

Пояснения к столбцам:

Ветер - указаны скорость ветра в м/с - средняя за 10 мин, порывы в срок и между сроками (в фигурных скобках) и направление, откуда дует ветер: С - северный, СВ - северо-восточный, В - восточный, ЮВ - юго-восточный, Ю - южный, ЮЗ - юго-западный, З - западный, СЗ - северо-западный.
Видимость - горизонтальная дальность видимости в метрах или километрах. При видимости от 1 до 10 км при отсутствии осадков обычно наблюдается дымка, при ухудшении видимости до 1 км и менее - туман. В сухую погоду видимость может ухудшаться дымом, пылью или мглою.
Явления - указаны атмосферные явления, наблюдавшиеся в срок или в последний час перед сроком; фигурными скобками обозначены явления, наблюдавшиеся между сроками (за 1-3 часа до срока); квадратными скобками обозначены град или гололедные отложения с указанием их диаметра в мм.
Облачность - указаны через наклонную черту общая и нижняя облачность в баллах и высота нижней границы облаков в метрах; квадратными скобками обозначены формы облаков: Ci - перистые, Cs - перисто-слоистые, Cc - перисто-кучевые, Ac - высококучевые, As - высокослоистые, Sc - слоисто-кучевые, Ns - слоисто-дождевые, Cu - кучевые, Cb - кучево-дождевые. Подробнее классификацию облаков см. в Атласе облаков (PDF).
T - Температура воздуха - температура, измеренная на высоте 2 м над землей.
Td - Температура точки росы - температура, при понижении до которой содержащийся в воздухе водяной пар достигнет насыщения.
f - Относительная влажность воздуха - влажноcть воздуха, измеренная на высоте 2 м над землей.
Te - Эффективная температура - температура, которую ощущает одетый по сезону человек в тени. Характеристика душности погоды. При расчете учитывается влияние влажности воздуха и скорости ветра на теплоощущения человека.
Tes - Эффективная температура на солнце - температура, которую ощущает человек, с поправкой на солнечный нагрев. Характеристика знойности погоды. Зависит от высоты солнца над горизонтом, облачности и скорости ветра. Ночью, в пасмурную погоду, а также при ветре 12 м/с и более поправка равна нулю.
P - Атмосферное давление - приведенное к уровню моря атмосферное давление.
Po - Атмосферное давление - измеренное на уровне метеостанции атмосферное давление.
Tmin - Минимальная температура - минимум температуры воздуха на высоте 2 м над землей.
Tmax - Максимальная температура - максимум температуры воздуха на высоте 2 м над землей.
R - Количество осадков - Количество выпавших осадков за период времени, мм. При наведении курсора мыши на число - период времени, за который выпало указанное количество осадков.
R24 - Количество осадков - Количество выпавших осадков за 24 часа, мм.
S - Снежный покров - Высота снежного покрова, см. При наведении курсора мыши на число - состояние снежного покрова и степень покрытия местности в баллах.